Location: Catstown
(52.4386°N, 7.2633°W)
Time: 03:58:00
(UTC+00:00)

Cosmos 1674 - Pass Details

Date: 18 September 2020
Orbit: 495 x 517 km, 82.5° (Epoch: 18 October)

Event Time Altitude Azimuth Distance (km) Brightness Sun altitude
Rises 20:36:51 0° 347° (NNW) 2,654 6.9 -18.4°
Reaches altitude 10° 20:39:00 10° 346° (NNW) 1,762 6.0 -18.7°
Maximum altitude 20:42:51 74° 262° (W) 546 2.8 -19.2°
Enters shadow 20:44:29 33° 184° (S) 895 3.6 -19.5°
